Simultaneous Nadir Overpasses (SNOs) Predictions

Prediction of SNOs between GOES-15 and METOP-B Satellite Orbit:

Table of predicted SNOs for the next 14.0 days since TLE Epoch: 11/9/2024
Index Date Time (GOES-15) GOES-15 Lat,Lon METOP-B Lat,Lon Distance(km) Time Diff (sec)
1 11/09/2024 05:01:05 -0.24, 61.44 -0.86, 64.11 305.53 80
2 11/10/2024 17:19:56 0.24, 61.58 -0.24, 59.55 231.93 80
3 11/11/2024 16:56:32 0.24, 61.60 0.88, 64.56 336.59 80
4 11/13/2024 05:15:16 -0.23, 61.51 0.09, 60.00 170.83 80
5 11/14/2024 04:57:11 -0.23, 61.52 -0.99, 65.02 398.31 80
6 11/15/2024 17:16:02 0.23, 61.66 -0.07, 60.45 138.95 80
7 11/16/2024 16:52:37 0.23, 61.69 1.08, 65.45 429.01 80
8 11/18/2024 05:11:21 -0.22, 61.61 -0.08, 60.91 80.05 80
9 11/19/2024 04:53:15 -0.22, 61.63 -1.18, 65.92 488.69 80
10 11/20/2024 17:12:06 0.20, 61.78 0.11, 61.36 48.01 80
